Yuma MCAS, AZ

5:50 AM MST on May 24, 2017 (GMT -0700)
Yuma Marine Corps Air Station

Weather History for KNYL - December, 2012

Change the Weather History Date:

Wednesday, December 12, 2012

  Actual Average Record
Temperature  
Mean Temperature 61 °F 57 °F  
Max Temperature 75 °F 68 °F 85 °F (1950)
Min Temperature 46 °F 46 °F 30 °F (1949)
Degree Days  
Heating Degree Days 4 8  
Month to date heating degree days 18 80  
Since 1 July heating degree days 40 148  
Cooling Degree Days 0 0  
Month to date cooling degree days 19 0  
Year to date cooling degree days 4933 4649  
Growing Degree Days 10 (Base 50)    
Moisture  
Dew Point 32 °F    
Average Humidity 37    
Maximum Humidity 53    
Minimum Humidity 21    
Precipitation  
Precipitation 0.00 in 0.01 in 0.55 in (1934)
Month to date precipitation 0.00 0.17  
Year to date precipitation 2.37 3.22  
Sea Level Pressure  
Sea Level Pressure 29.89 in    
Wind  
Wind Speed 6 mph (ESE)    
Max Wind Speed 18 mph    
Max Gust Speed 22 mph    
Visibility 10 miles    
Events      
T = Trace of Precipitation, MM = Missing Value Source: NWS Daily Summary

Daily Weather History Graph

Daily Weather History Graph

Search for Another Location

Airport or City:

Trip Planner

Search our weather history database for the weather conditions in past years. The results will help you decide how hot, cold, wet, or windy it might be!

Date:

Astronomy

Dec. 12, 2012 Rise Set
Actual Time 7:31 AM MST 5:33 PM MST
Civil Twilight 7:04 AM MST 6:00 PM MST
Nautical Twilight 6:33 AM MST 6:31 PM MST
Astronomical Twilight 6:03 AM MST 7:01 PM MST
Moon 6:41 AM MST (12/12) 5:13 PM MST (12/12)
Length of Visible Light 10h 56m
Length of Day
10h 01m
Waning Crescent, 0% of the Moon is Illuminated
Dec 12
Waning Crescent
Dec 13
New
Dec 19
First Quarter
Dec 28
Full
Jan 4
Last Quarter

Hourly Weather History & Observations

Time (MST) Temp. Dew Point Humidity Pressure Visibility Wind Dir Wind Speed Gust Speed Precip Events Conditions
12:55 AM 51.1 °F 26.1 °F 38% 29.96 in 10.0 mi NNE 3.5 mph - N/A   Clear
1:55 AM 50.0 °F 25.0 °F 38% 29.94 in 10.0 mi NNE 4.6 mph - N/A   Clear
2:55 AM 48.9 °F 26.1 °F 41% 29.94 in 10.0 mi NE 3.5 mph - N/A   Clear
3:55 AM 46.9 °F 25.0 °F 42% 29.93 in 10.0 mi Calm Calm - N/A   Clear
4:55 AM 46.9 °F 25.0 °F 42% 29.92 in 10.0 mi NE 4.6 mph - N/A   Clear
5:55 AM 46.9 °F 24.1 °F 41% 29.92 in 10.0 mi NE 3.5 mph - N/A   Clear
6:55 AM 46.9 °F 23.0 °F 39% 29.94 in 10.0 mi ENE 5.8 mph - N/A   Scattered Clouds
7:55 AM 48.9 °F 21.0 °F 33% 29.94 in 10.0 mi East 4.6 mph - N/A   Mostly Cloudy
8:55 AM 54.0 °F 21.0 °F 28% 29.95 in 10.0 mi ENE 4.6 mph - N/A   Mostly Cloudy
9:55 AM 59.0 °F 21.9 °F 24% 29.97 in 10.0 mi North 3.5 mph - N/A   Mostly Cloudy
10:55 AM 64.9 °F 24.1 °F 21% 29.97 in 10.0 mi ENE 5.8 mph - N/A   Mostly Cloudy
11:55 AM 69.1 °F 34.0 °F 27% 29.94 in 10.0 mi ESE 9.2 mph - N/A   Mostly Cloudy
12:55 PM 72.0 °F 39.0 °F 30% 29.90 in 10.0 mi South 13.8 mph - N/A   Mostly Cloudy
1:55 PM 73.9 °F 37.0 °F 26% 29.87 in 10.0 mi SE 12.7 mph - N/A   Mostly Cloudy
2:55 PM 73.9 °F 36.0 °F 25% 29.84 in 10.0 mi SSE 16.1 mph - N/A   Mostly Cloudy
3:55 PM 73.9 °F 36.0 °F 25% 29.83 in 10.0 mi SSE 15.0 mph - N/A   Mostly Cloudy
4:55 PM 72.0 °F 36.0 °F 27% 29.83 in 10.0 mi SSE 9.2 mph - N/A   Scattered Clouds
5:55 PM 66.9 °F 39.0 °F 36% 29.83 in 10.0 mi SSE 5.8 mph - N/A   Scattered Clouds
6:55 PM 64.0 °F 39.9 °F 41% 29.83 in 10.0 mi SE 6.9 mph - N/A   Scattered Clouds
7:55 PM 61.0 °F 44.1 °F 54% 29.84 in 10.0 mi SSE 6.9 mph - N/A   Scattered Clouds
8:55 PM 60.1 °F 43.0 °F 53% 29.84 in 10.0 mi SE 4.6 mph - N/A   Scattered Clouds
9:55 PM 59.0 °F 41.0 °F 51% 29.84 in 10.0 mi Calm Calm - N/A   Scattered Clouds
10:55 PM 57.9 °F 37.9 °F 47% 29.85 in 10.0 mi SSE 3.5 mph - N/A   Scattered Clouds
11:55 PM 57.0 °F 39.9 °F 53% 29.84 in 10.0 mi Calm Calm - N/A   Scattered Clouds